Location: Prairie Dale
(45.6972°N, 104.5033°W)
Time: 08:07:53
(UTC+00:00)

Envisat - Pass Details

Date: 29 January 2022
Orbit: 764 x 765 km, 98.2° (Epoch: 16 May)

Event Time Altitude Azimuth Distance (km) Brightness Sun altitude
Rises 12:26:32 0° 8° (N) 3,242 6.3 -20.4°
Reaches altitude 10° 12:28:54 10° 4° (N) 2,312 5.5 -20.0°
Maximum altitude 12:33:49 51° 290° (WNW) 956 3.1 -19.1°
Drops below altitude 10° 12:38:43 10° 215° (SW) 2,297 5.2 -18.2°
Sets 12:41:03 0° 210° (SSW) 3,220 6.0 -17.8°
